Weather History for Arctic Village, AK

Change the Weather History Date:

Tuesday, November 20, 2012

  Actual Average Record
Temperature  
Mean Temperature -20 °F -  
Max Temperature -14 °F -9 °F 21 °F (1998)
Min Temperature -27 °F -26 °F -50 °F (1993)
Degree Days  
Heating Degree Days 86    
Moisture  
Dew Point -31 °F    
Average Humidity 52    
Maximum Humidity 64    
Minimum Humidity 9    
Precipitation  
Precipitation 0.00 in - - ()
Sea Level Pressure  
Sea Level Pressure 30.05 in    
Wind  
Wind Speed 1 mph (NE)    
Max Wind Speed 6 mph    
Max Gust Speed -    
Visibility 10 miles    
Events      
Averages and records for this station are not official NWS values.
T = Trace of Precipitation, MM = Missing Value Source: NWS Daily Summary

Daily Weather History Graph

Daily Weather History Graph

Search for Another Location

Airport:

Trip Planner

Search our weather history database for the weather conditions in past years. The results will help you decide how hot, cold, wet, or windy it might be!

Date:

Astronomy

Nov. 20, 2012 Rise Set
Actual Time 10:25 AM AKST 2:30 PM AKST
Civil Twilight 8:56 AM AKST 3:59 PM AKST
Nautical Twilight 7:39 AM AKST 5:15 PM AKST
Astronomical Twilight 6:32 AM AKST 6:22 PM AKST
Moon 1:51 PM AKST (11/20) No Moon Set
Length of Visible Light 7h 02m
Length of Day
4h 04m
First Quarter, 53% of the Moon is Illuminated
Nov 20
First Quarter
Nov 28
Full
Dec 6
Last Quarter
Dec 12
New
Dec 19
First Quarter

Hourly Weather History & Observations

Time (AKST) Temp. Windchill Dew Point Humidity Pressure Visibility Wind Dir Wind Speed Gust Speed Precip Events Conditions
12:16 AM -18.4 °F -31.4 °F - N/A% 30.12 in 10.0 mi ENE 4.6 mph - N/A   Clear
12:36 AM -20.2 °F -30.9 °F - N/A% 30.12 in 10.0 mi ENE 3.5 mph - N/A   Clear
12:56 AM -18.4 °F -31.4 °F - N/A% 30.12 in 10.0 mi NE 4.6 mph - N/A   Clear
1:16 AM -22.0 °F - - N/A% 30.12 in 10.0 mi Calm Calm - N/A   Clear
1:36 AM -20.2 °F - - N/A% 30.12 in 10.0 mi Calm Calm - N/A   Clear
1:56 AM -18.4 °F - - N/A% 30.12 in 10.0 mi Calm Calm - N/A   Clear
2:16 AM -23.8 °F - - N/A% 30.11 in 10.0 mi Calm Calm - N/A   Clear
2:36 AM -23.8 °F - - N/A% 30.11 in 10.0 mi Calm Calm - N/A   Clear
2:56 AM -22.0 °F - - N/A% 30.11 in 10.0 mi Calm Calm - N/A   Clear
3:16 AM -23.8 °F - - N/A% 30.11 in 10.0 mi Calm Calm - N/A   Clear
3:36 AM -20.2 °F - - N/A% 30.11 in 10.0 mi Calm Calm - N/A   Clear
3:56 AM -22.0 °F -35.6 °F - N/A% 30.10 in 10.0 mi East 4.6 mph - N/A   Clear
4:16 AM -23.8 °F -39.8 °F - N/A% 30.10 in 10.0 mi NE 5.8 mph - N/A   Clear
4:36 AM -18.4 °F -28.9 °F -61.6 °F 9% 30.09 in 10.0 mi East 3.5 mph - N/A   Clear
4:56 AM -20.2 °F - - N/A% 30.09 in 10.0 mi Calm Calm - N/A   Clear
5:16 AM -23.8 °F - - N/A% 30.09 in 10.0 mi Calm Calm - N/A   Clear
5:36 AM -22.0 °F - - N/A% 30.09 in 10.0 mi Calm Calm - N/A   Clear
5:56 AM -25.6 °F -37.1 °F - N/A% 30.10 in 10.0 mi NNW 3.5 mph - N/A   Clear
6:16 AM -23.8 °F - - N/A% 30.09 in 10.0 mi Calm Calm - N/A   Clear
6:36 AM -23.8 °F - - N/A% 30.09 in 10.0 mi Calm Calm - N/A   Clear
6:56 AM -25.6 °F - - N/A% 30.09 in 10.0 mi Calm Calm - N/A   Clear
7:16 AM -25.6 °F - - N/A% 30.09 in 10.0 mi Calm Calm - N/A   Clear
7:36 AM -25.6 °F - - N/A% 30.08 in 10.0 mi Calm Calm - N/A   Clear
7:56 AM -25.6 °F - - N/A% 30.08 in 10.0 mi Calm Calm - N/A   Clear
8:16 AM -25.6 °F - - N/A% 30.08 in 10.0 mi Calm Calm - N/A   Clear
8:36 AM -27.4 °F - - N/A% 30.08 in 10.0 mi Calm Calm - N/A   Clear
8:56 AM -25.6 °F - - N/A% 30.07 in 10.0 mi Calm Calm - N/A   Clear
9:16 AM -23.8 °F - - N/A% 30.07 in 10.0 mi Calm Calm - N/A   Clear
9:36 AM -20.2 °F - - N/A% 30.06 in 10.0 mi Calm Calm - N/A   Clear
9:56 AM -25.6 °F - - N/A% 30.06 in 8.0 mi Calm Calm - N/A   Clear
10:16 AM -27.4 °F - - N/A% 30.07 in 10.0 mi Calm Calm - N/A   Clear
10:36 AM -27.4 °F - - N/A% 30.07 in 10.0 mi Calm Calm - N/A   Clear
11:16 AM -23.8 °F - - N/A% 30.06 in 10.0 mi Calm Calm - N/A   Clear
11:36 AM -23.8 °F - - N/A% 30.06 in 10.0 mi Calm Calm - N/A   Clear
11:56 AM -23.8 °F - - N/A% 30.06 in 10.0 mi Calm Calm - N/A   Clear
12:16 PM -23.8 °F - - N/A% 30.05 in 10.0 mi Calm Calm - N/A   Clear
12:36 PM -20.2 °F - - N/A% 30.05 in 10.0 mi Calm Calm - N/A   Clear
12:56 PM -23.8 °F - - N/A% 30.04 in 10.0 mi Calm Calm - N/A   Clear
1:16 PM -23.8 °F -35.0 °F - N/A% 30.04 in 8.0 mi NE 3.5 mph - N/A   Clear
1:36 PM -18.4 °F -31.4 °F - N/A% 30.04 in 10.0 mi NE 4.6 mph - N/A   Clear
1:56 PM -23.8 °F - - N/A% 30.04 in 10.0 mi Calm Calm - N/A   Clear
2:16 PM -23.8 °F - - N/A% 30.03 in 10.0 mi Calm Calm - N/A   Clear
2:36 PM -23.8 °F - - N/A% 30.02 in 9.0 mi Calm Calm - N/A   Clear
2:56 PM -23.8 °F -35.0 °F - N/A% 30.02 in 9.0 mi NNE 3.5 mph - N/A   Clear
3:16 PM -23.8 °F - - N/A% 30.02 in 10.0 mi Calm Calm - N/A   Clear
3:36 PM -25.6 °F - - N/A% 30.02 in 10.0 mi Calm Calm - N/A   Clear
3:56 PM -25.6 °F - - N/A% 30.01 in 10.0 mi Calm Calm - N/A   Clear
4:16 PM -23.8 °F - - N/A% 30.01 in 10.0 mi Calm Calm - N/A   Clear
4:36 PM -25.6 °F - - N/A% 30.01 in 10.0 mi Calm Calm - N/A   Clear
4:56 PM -23.8 °F - - N/A% 30.00 in 10.0 mi Calm Calm - N/A   Clear
5:16 PM -25.6 °F - - N/A% 30.00 in 10.0 mi Calm Calm - N/A   Clear
5:36 PM -25.6 °F - - N/A% 30.00 in 10.0 mi Calm Calm - N/A   Clear
5:56 PM -25.6 °F -37.1 °F - N/A% 29.99 in 10.0 mi North 3.5 mph - N/A   Clear
6:16 PM -27.4 °F - - N/A% 30.00 in 10.0 mi Calm Calm - N/A   Clear
6:36 PM -27.4 °F -41.9 °F - N/A% 29.99 in 10.0 mi NNW 4.6 mph - N/A   Clear
6:56 PM -25.6 °F - - N/A% 29.99 in 10.0 mi Calm Calm - N/A   Clear
7:16 PM -27.4 °F - - N/A% 29.99 in 10.0 mi Calm Calm - N/A   Mostly Cloudy
7:36 PM -25.6 °F - - N/A% 29.99 in 10.0 mi Calm Calm - N/A   Overcast
7:56 PM -23.8 °F -37.7 °F - N/A% 29.98 in 10.0 mi NNW 4.6 mph - N/A   Overcast
8:16 PM -20.2 °F - - N/A% 29.98 in 10.0 mi Calm Calm - N/A   Overcast
8:36 PM -20.2 °F -30.9 °F - N/A% 29.98 in 10.0 mi ESE 3.5 mph - N/A   Overcast
8:56 PM -20.2 °F - - N/A% 29.98 in 10.0 mi Calm Calm - N/A   Overcast
9:16 PM -18.4 °F - - N/A% 29.99 in 10.0 mi Calm Calm - N/A   Overcast
9:36 PM -18.4 °F -31.4 °F - N/A% 29.98 in 10.0 mi NNW 4.6 mph - N/A   Overcast
9:56 PM -16.6 °F -29.3 °F - N/A% 29.99 in 10.0 mi NNE 4.6 mph - N/A   Overcast
10:16 PM -16.6 °F - - N/A% 29.98 in 10.0 mi Calm Calm - N/A   Overcast
10:36 PM -16.6 °F - -27.4 °F 58% 29.98 in 10.0 mi Calm Calm - N/A   Overcast
10:56 PM -14.8 °F - -25.6 °F 58% 29.98 in 10.0 mi Calm Calm - N/A   Overcast
11:16 PM -14.8 °F - -25.6 °F 58% 29.98 in 10.0 mi Calm Calm - N/A   Overcast
11:36 PM -14.8 °F - -23.8 °F 64% 29.98 in 10.0 mi Calm Calm - N/A   Overcast
11:56 PM -14.8 °F - -23.8 °F 64% 29.98 in 10.0 mi Calm Calm - N/A   Overcast